www.pogodaiklimat.ru

Погода и климат >> Архив погоды >> Россия >> Краснодарский край >> Анапа


АРХИВ ПОГОДЫ в Анапе

Время (UTC), дата Ветер
(напр.,м/с)
 
Видим.   Явления Облачность Т
(С)
Тd
(С)
f
(%)
Тe
(С)
Тes
(С)
Комфортность P
(гПа)
Po
(гПа)
Тmin
(С)
Tmax
(С)
R
(мм)
R24
(мм)
S
(см)
12 17.01 С 1 10 км 3/3 600 м
[Sc]
+6.7 -1.0 58 +6 +8 тепло 1017.1 1013.3
15 17.01 В 3 10 км 3/3 600 м
[Sc]
+4.1 -1.4 67 +1 +1 по сезону 1018.7 1014.9 +6.8 0.7
18 17.01 С 1 10 км слаб. ливневой дождь 10/10 300 м
[Cb cap]
+2.6 -0.8 78 +1 +1 по сезону 1020.2 1016.3
21 17.01 С 2 10 км {ливн. осадки} 8/4 600 м
[Sc Ac trans]
+3.3 +0.4 81 0 0 по сезону 1021.2 1017.3
00 18.01 В 1 10 км {ливн. осадки} 8/6 600 м
[Sc Ac trans]
+2.4 +0.9 90 +1 +1 по сезону 1021.4 1017.5
03 18.01 ЮЗ 7-12
{12}
10 км 9/9 600 м
[Sc]
+7.1 +3.1 76 +2 +2 тепло 1020.2 1016.4 +1.1 0.3 <0.5
06 18.01 Ю 9-15
{15}
20 км 8/8 600 м
[Sc]
+6.7 +1.4 69 +1 +1 по сезону 1021.3 1017.5
09 18.01 Ю 10-16
{16}
20 км 6/6 600 м
[Sc]
+7.2 +1.9 69 +2 +2 по сезону 1021.3 1017.5
12 18.01 Ю 9-15
{16}
20 км 8/8 600 м
[Sc]
+7.9 +2.9 71 +3 +3 по сезону 1020.2 1016.4
15 18.01 Ю 12-16
{17}
10 км 3/3 600 м
[Sc]
+7.5 +2.9 73 +2 +2 по сезону 1020.1 1016.3 +7.9
18 18.01 Ю 13-17
{17}
10 км 8/8 600 м
[Sc]
+7.8 +2.6 70 +2 +2 по сезону 1019.8 1016.0
21 18.01 Ю 13-17
{18}
10 км 9/9 600 м
[Sc]
+7.9 +3.5 74 +2 +2 тепло 1019.8 1016.0
00 19.01 Ю 12-16
{18}
10 км 9/9 600 м
[Sc]
+8.0 +4.2 77 +2 +2 тепло 1019.3 1015.5
03 19.01 Ю 12-16
{16}
10 км 8/8 600 м
[Sc]
+8.0 +4.4 78 +2 +2 тепло 1018.2 1014.4 +7.5
06 19.01 Ю 12-17
{18}
10 км 10/8 600 м
[Sc Ac und]
+8.3 +4.8 79 +3 +3 тепло 1018.1 1014.3
09 19.01 Ю 13-16
{18}
10 км 10/8 600 м
[Sc Ac und]
+8.7 +5.4 80 +3 +3 тепло 1018.5 1014.7
12 19.01 Ю 11-14
{17}
10 км 10/9 600 м
[Sc Ac und]
+9.0 +6.1 82 +4 +4 тепло 1018.0 1014.2
15 19.01 З 6-10
{14}
10 км 10/10 600 м
[Sc]
+9.0 +6.3 83 +5 +5 тепло 1019.0 1015.2 +9.5
18 19.01 С 3
{10}
10 км 10/10 600 м
[Sc]
+4.1 +2.7 91 0 0 по сезону 1021.0 1017.1
21 19.01 С 5 10 км 10/10 600 м
[Sc]
+2.5 +0.4 86 -3 -3 по сезону 1023.1 1019.1
00 20.01 СВ 4 10 км 10/10 600 м
[Sc]
+2.1 -0.3 84 -3 -3 по сезону 1024.1 1020.2
03 20.01 СВ 4 10 км 10/10 600 м
[Sc]
+1.8 -0.7 83 -3 -3 по сезону 1024.1 1020.2 +1.8
06 20.01 СВ 4 10 км 8/8 600 м
[Sc]
+1.5 -0.8 85 -4 -4 по сезону 1024.4 1020.4 +1.5
09 20.01 СВ 2 20 км 3/0
[Ac As]
+4.6 +0.4 74 +2 +5 по сезону 1024.1 1020.2
12 20.01 Ю 1 20 км 6/0
[Ac As]
+6.3 +1.9 73 +5 +7 тепло 1022.7 1018.8
15 20.01 ЮВ 2 10 км 9/8 600 м
[Sc Ac As]
+6.4 +2.7 77 +4 +4 тепло 1021.9 1018.0 +6.8
18 20.01 Ю 6 10 км 9/9 600 м
[Sc]
+7.5 +3.6 76 +3 +3 тепло 1021.3 1017.5
21 20.01 Ю 8-11
{11}
10 км 9/9 600 м
[Sc]
+8.5 +5.4 81 +4 +4 тепло 1020.4 1016.6
00 21.01 Ю 9-12
{13}
10 км ясно +8.6 +5.4 80 +4 +4 тепло 1019.2 1015.4
03 21.01 Ю 9-14
{15}
10 км 8/5 600 м
[Sc Ac As]
+8.9 +6.6 85 +4 +4 тепло 1016.6 1012.8 +6.0
06 21.01 Ю 11-17
{18}
10 км 8/0
[Ac trans Ci fib]
+9.2 +6.1 81 +4 +4 тепло 1015.8 1012.0
09 21.01 Ю 11-15
{18}
10 км 10/3 600 м
[Sc Ci sp]
+10.2 +6.7 79 +6 +6 тепло 1015.4 1011.6
12 21.01 Ю 13-16
{16}
10 км 10/0
[Ac und]
+9.5 +6.4 81 +4 +4 тепло 1013.6 1009.8
15 21.01 Ю 8-11
{16}
10 км {ливн. осадки} 10/10 600 м
[Cb cap]
+9.4 +7.4 87 +5 +5 тепло 1013.5 1009.8 +10.3 0.3
18 21.01 С 2
{12}
10 км {ливн. осадки} 10/10 300 м
[Cb cap]
+7.3 +5.8 90 +5 +5 тепло 1014.2 1010.4
21 21.01 С 2 10 км 10/10 300 м
[Sc]
+5.0 +3.3 89 +2 +2 тепло 1016.4 1012.5
00 22.01 С 2 4000 м дымка 10/10 600 м
[Sc]
+2.6 +1.3 91 -1 -1 по сезону 1017.9 1014.0
03 22.01 С 3 4000 м дымка 10/10 600 м
[Sc]
+0.9 0.0 94 -4 -4 по сезону 1018.7 1014.8 +0.9
06 22.01 С 5 10 км 10/10 600 м
[Sc]
0.0 -1.7 88 -6 -6 прохладно 1020.5 1016.6 0.0
09 22.01 СВ 5 10 км 10/10 600 м
[Sc]
-0.2 -2.4 85 -6 -6 прохладно 1021.6 1017.6
12 22.01 СВ 4 10 км 10/10 600 м
[Sc]
-0.3 -2.9 83 -6 -6 холодно 1021.5 1017.5
15 22.01 СВ 4 10 км 10/10 600 м
[Sc]
-0.2 -2.8 83 -6 -6 прохладно 1021.0 1017.0 +0.9
18 22.01 СВ 4 10 км 10/10 600 м
[Sc]
+0.3 -2.1 84 -5 -5 по сезону 1020.8 1016.9
21 22.01 СВ 3 10 км 10/10 600 м
[Sc]
+0.3 -1.4 88 -4 -4 по сезону 1020.5 1016.6
00 23.01 В 4 10 км 10/10 600 м
[Sc]
+0.9 -1.0 87 -4 -4 по сезону 1018.8 1014.9
03 23.01 СВ 3 10 км 9/9 600 м
[Sc]
+1.0 -0.6 89 -4 -4 по сезону 1017.0 1013.1 -0.2
06 23.01 ЮВ 5-11
{11}
10 км 10/10 600 м
[Sc]
+5.2 +2.1 80 +1 +1 по сезону 1016.6 1012.7
09 23.01 Ю 7-13
{13}
10 км 10/10 600 м
[Sc]
+9.0 +4.8 75 +5 +5 тепло 1015.4 1011.7
12 23.01 Ю 10-15
{16}
10 км 10/10 600 м
[Sc]
+9.4 +5.9 79 +5 +5 тепло 1013.2 1009.4
15 23.01 Ю 9-14
{16}
10 км 10/8 600 м
[Sc Ci]
+9.0 +6.1 82 +4 +4 тепло 1012.6 1008.8 +10.3
18 23.01 Ю 11-15
{16}
10 км 5/1 600 м
[Sc Ci fib]
+9.4 +7.2 86 +4 +4 тепло 1012.3 1008.6
21 23.01 Ю 11-15
{16}
10 км 10/0
[Ac und]
+10.1 +6.6 79 +6 +6 тепло 1011.6 1007.8
00 24.01 Ю 10-17
{17}
10 км 9/0
[Ac trans Ci sp]
+10.1 +6.8 80 +6 +6 тепло 1010.8 1007.0
03 24.01 Ю 8-14
{17}
10 км 9/0
[Ac trans]
+10.3 +6.5 77 +6 +6 тепло 1010.6 1006.8 +9.0
06 24.01 ЮВ 7-14
{14}
20 км 8/0
[Ci fib]
+10.9 +4.8 66 +8 +8 тепло 1010.2 1006.4
09 24.01 Ю 9-14
{16}
20 км 10/0
[Ac As Ci sp]
+11.2 +6.6 73 +8 +8 тепло 1008.9 1005.2

 

Местоположение метеостанции Анапа (Краснодарский край, Россия): широта 44.88 долгота 37.28 высота над уровнем моря 32 м.

В архиве по умолчанию представлена погода в Анапе за последнюю неделю. Архивные данные за месяц целиком и за предыдущие месяцы, начиная с января 2011 года, Вы можете получить, выбрав интересующий диапазон дат из раскрывающегося списка и нажав кнопку "Ввод!".


*Определитесь, кто Вы:
робот инопланетянин человек

Внимание! Время в таблицах - всемирное. Для получения местного времени необходимо прибавить поправку, которая равна 3 ч.

Смотрите также архив погоды в соседних городах и на ближайших метеорологических станциях:

Погода в Новороссийске (Краснодарский край, Россия) (48 км)
Погода в Темрюке (Краснодарский край, Россия) (50 км)
Погода в Крымске (Краснодарский край, Россия) (57 км)
Погода в Тамани (Краснодарский край, Россия) (58 км)
Погода в Геленджике (Краснодарский край, Россия) (72 км)
Погода в Опасном (Крым, Россия) (75 км)
Погода в Славянске-на-Кубани (Краснодарский край, Россия) (80 км)
Погода в Керчи (Крым, Россия) (86 км)
Погода в Джубге (Краснодарский край, Россия) (129 км)
Погода в Мысовом (Крым, Россия) (131 км)

Пояснения к столбцам:

Ветер - указаны скорость ветра в м/с - средняя за 10 мин, порывы в срок и между сроками (в фигурных скобках) и направление, откуда дует ветер: С - северный, СВ - северо-восточный, В - восточный, ЮВ - юго-восточный, Ю - южный, ЮЗ - юго-западный, З - западный, СЗ - северо-западный.
Видимость - горизонтальная дальность видимости в метрах или километрах. При видимости от 1 до 10 км при отсутствии осадков обычно наблюдается дымка, при ухудшении видимости до 1 км и менее - туман. В сухую погоду видимость может ухудшаться дымом, пылью или мглою.
Явления - указаны атмосферные явления, наблюдавшиеся в срок или в последний час перед сроком; фигурными скобками обозначены явления, наблюдавшиеся между сроками (за 1-3 часа до срока); квадратными скобками обозначены град или гололедные отложения с указанием их диаметра в мм.
Облачность - указаны через наклонную черту общая и нижняя облачность в баллах и высота нижней границы облаков в метрах; квадратными скобками обозначены формы облаков: Ci - перистые, Cs - перисто-слоистые, Cc - перисто-кучевые, Ac - высококучевые, As - высокослоистые, Sc - слоисто-кучевые, Ns - слоисто-дождевые, Cu - кучевые, Cb - кучево-дождевые. Подробнее классификацию облаков см. в Атласе облаков (PDF).
T - Температура воздуха - температура, измеренная на высоте 2 м над землей.
Td - Температура точки росы - температура, при понижении до которой содержащийся в воздухе водяной пар достигнет насыщения.
f - Относительная влажность воздуха - влажноcть воздуха, измеренная на высоте 2 м над землей.
Te - Эффективная температура - температура, которую ощущает одетый по сезону человек в тени. Характеристика душности погоды. При расчете учитывается влияние влажности воздуха и скорости ветра на теплоощущения человека.
Tes - Эффективная температура на солнце - температура, которую ощущает человек, с поправкой на солнечный нагрев. Характеристика знойности погоды. Зависит от высоты солнца над горизонтом, облачности и скорости ветра. Ночью, в пасмурную погоду, а также при ветре 12 м/с и более поправка равна нулю.
P - Атмосферное давление - приведенное к уровню моря атмосферное давление.
Po - Атмосферное давление - измеренное на уровне метеостанции атмосферное давление.
Tmin - Минимальная температура - минимум температуры воздуха на высоте 2 м над землей.
Tmax - Максимальная температура - максимум температуры воздуха на высоте 2 м над землей.
R - Количество осадков - Количество выпавших осадков за период времени, мм. При наведении курсора мыши на число - период времени, за который выпало указанное количество осадков.
R24 - Количество осадков - Количество выпавших осадков за 24 часа, мм.
S - Снежный покров - Высота снежного покрова, см. При наведении курсора мыши на число - состояние снежного покрова и степень покрытия местности в баллах.